CAL066 OBBI-OEJN

Flight info

Callsign CAL066
Flight time 1h 51m
Altitude 40000
Route BHR B457 NARMI N112 GETOT Q212 KIA G782 VEMEM
Aircraft A359/H-SDE1E2E3FGHIJ1J2J3J4J5M1P2RWY/LB1D1

Departure

Time 2026-04-29 06:33
Airport Bahrain International Airport (OBBI)

Arrival

Time 2026-04-29 08:24
Airport King Abdulaziz International Airport (OEJN)
Time Latitude Longitude Altitude Speed Heading
2026-04-29 06:19 26.26701 50.63263 25 ft 0 kts 205°
2026-04-29 06:27 26.26731 50.63279 27 ft 0 kts 205°
2026-04-29 06:28 26.26727 50.63280 26 ft 1 kts 181°
2026-04-29 06:28 26.26722 50.63288 27 ft 1 kts 130°
2026-04-29 06:28 26.26716 50.63317 24 ft 9 kts 105°
2026-04-29 06:28 26.26694 50.63408 25 ft 14 kts 105°
2026-04-29 06:29 26.26666 50.63522 27 ft 16 kts 105°
2026-04-29 06:29 26.26614 50.63627 26 ft 16 kts 124°
2026-04-29 06:29 26.26546 50.63737 24 ft 18 kts 124°
2026-04-29 06:29 26.26472 50.63858 26 ft 19 kts 124°
2026-04-29 06:30 26.26427 50.63968 22 ft 12 kts 89°
2026-04-29 06:30 26.26411 50.64169 21 ft 16 kts 122°
2026-04-29 06:30 26.26348 50.64279 21 ft 18 kts 123°
2026-04-29 06:31 26.26273 50.64404 20 ft 21 kts 124°
2026-04-29 06:31 26.26188 50.64545 21 ft 22 kts 121°
2026-04-29 06:31 26.26102 50.64689 21 ft 23 kts 122°
2026-04-29 06:31 26.26023 50.64845 22 ft 23 kts 103°
2026-04-29 06:32 26.26084 50.64988 26 ft 22 kts 34°
2026-04-29 06:32 26.26173 50.64981 25 ft 7 kts 304°
2026-04-29 06:32 26.26224 50.64881 25 ft 29 kts 298°
2026-04-29 06:32 26.26457 50.64436 21 ft 104 kts 302°
2026-04-29 06:33 26.26976 50.63545 27 ft 168 kts 303°
2026-04-29 06:33 26.27605 50.62483 931 ft 155 kts 302°
2026-04-29 06:33 26.28187 50.61515 1781 ft 151 kts 303°
2026-04-29 06:33 26.28762 50.60450 2114 ft 177 kts 293°
2026-04-29 06:34 26.29126 50.59005 2394 ft 210 kts 280°
2026-04-29 06:34 26.29331 50.57274 2767 ft 240 kts 274°
2026-04-29 06:34 26.29419 50.55353 3417 ft 254 kts 271°
2026-04-29 06:34 26.29449 50.53360 4261 ft 260 kts 270°
2026-04-29 06:35 26.29469 50.51328 5151 ft 265 kts 270°
2026-04-29 06:35 26.29500 50.49260 6065 ft 269 kts 271°
2026-04-29 06:35 26.29549 50.47165 7015 ft 272 kts 271°
2026-04-29 06:35 26.29613 50.45040 7984 ft 276 kts 271°
2026-04-29 06:36 26.29688 50.42886 8946 ft 280 kts 272°
2026-04-29 06:36 26.29769 50.40700 9895 ft 284 kts 272°
2026-04-29 06:36 26.29853 50.38457 10619 ft 299 kts 272°
2026-04-29 06:36 26.29943 50.36048 11033 ft 323 kts 272°
2026-04-29 06:37 26.30066 50.33475 11519 ft 341 kts 276°
2026-04-29 06:37 26.30349 50.30818 12283 ft 348 kts 277°
2026-04-29 06:37 26.30693 50.28124 13115 ft 354 kts 278°
2026-04-29 06:37 26.31073 50.25395 13943 ft 359 kts 278°
2026-04-29 06:38 26.31472 50.22634 14751 ft 363 kts 279°
2026-04-29 06:38 26.31874 50.19873 15532 ft 368 kts 279°
2026-04-29 06:38 26.32168 50.17026 16298 ft 372 kts 272°
2026-04-29 06:38 26.32244 50.14129 17052 ft 376 kts 270°
2026-04-29 06:39 26.32239 50.11198 17793 ft 380 kts 269°
2026-04-29 06:39 26.32186 50.08231 18513 ft 385 kts 268°
2026-04-29 06:39 26.32110 50.05235 19233 ft 389 kts 268°
2026-04-29 06:39 26.32027 50.02206 19952 ft 393 kts 268°
2026-04-29 06:40 26.31946 49.99141 20673 ft 398 kts 268°
2026-04-29 06:40 26.31869 49.96039 21381 ft 402 kts 268°
2026-04-29 06:40 26.31795 49.92908 22063 ft 406 kts 268°
2026-04-29 06:40 26.31724 49.89744 22726 ft 411 kts 268°
2026-04-29 06:41 26.31652 49.86549 23373 ft 415 kts 268°
2026-04-29 06:41 26.31580 49.83317 24004 ft 419 kts 268°
2026-04-29 06:41 26.31506 49.80058 24619 ft 423 kts 268°
2026-04-29 06:41 26.31431 49.76767 25216 ft 427 kts 268°
2026-04-29 06:42 26.31354 49.73443 25797 ft 431 kts 268°
2026-04-29 06:42 26.31276 49.70089 26363 ft 435 kts 268°
2026-04-29 06:42 26.31195 49.66705 26918 ft 439 kts 268°
2026-04-29 06:42 26.31113 49.63295 27448 ft 442 kts 268°
2026-04-29 06:43 26.31030 49.59852 27982 ft 446 kts 268°
2026-04-29 06:43 26.30945 49.56381 28489 ft 450 kts 268°
2026-04-29 06:43 26.30859 49.52885 29002 ft 453 kts 268°
2026-04-29 06:43 26.30771 49.49361 29484 ft 457 kts 268°
2026-04-29 06:44 26.30681 49.45807 29948 ft 460 kts 268°
2026-04-29 06:44 26.30591 49.42231 30404 ft 464 kts 268°
2026-04-29 06:44 26.30498 49.38630 30839 ft 467 kts 268°
2026-04-29 06:44 26.30403 49.34999 31268 ft 470 kts 268°
2026-04-29 06:45 26.30306 49.31346 31677 ft 473 kts 268°
2026-04-29 06:45 26.30208 49.27673 32071 ft 476 kts 268°
2026-04-29 06:45 26.30109 49.23973 32446 ft 479 kts 268°
2026-04-29 06:45 26.30009 49.20303 32800 ft 482 kts 268°
2026-04-29 06:46 26.29906 49.16563 33147 ft 484 kts 268°
2026-04-29 06:46 26.29802 49.12800 33480 ft 487 kts 268°
2026-04-29 06:46 26.29697 49.09020 33800 ft 489 kts 268°
2026-04-29 06:46 26.29511 49.05224 34108 ft 492 kts 265°
2026-04-29 06:47 26.29222 49.01417 34419 ft 494 kts 264°
2026-04-29 06:47 26.28890 48.97613 34852 ft 493 kts 264°
2026-04-29 06:47 26.28553 48.93824 35294 ft 491 kts 264°
2026-04-29 06:47 26.28227 48.90037 35695 ft 490 kts 264°
2026-04-29 06:48 26.27913 48.86258 36075 ft 490 kts 264°
2026-04-29 06:48 26.27610 48.82486 36433 ft 489 kts 265°
2026-04-29 06:48 26.27313 48.78705 36767 ft 489 kts 265°
2026-04-29 06:48 26.27019 48.74931 37085 ft 489 kts 265°
2026-04-29 06:49 26.26725 48.71155 37397 ft 489 kts 265°
2026-04-29 06:49 26.26430 48.67374 37700 ft 489 kts 265°
2026-04-29 06:49 26.26134 48.63601 37994 ft 490 kts 265°
2026-04-29 06:49 26.25836 48.59824 38274 ft 490 kts 265°
2026-04-29 06:50 26.25536 48.56042 38551 ft 490 kts 265°
2026-04-29 06:50 26.25076 48.52288 38808 ft 490 kts 258°
2026-04-29 06:50 26.24179 48.48633 39062 ft 489 kts 250°
2026-04-29 06:50 26.22908 48.45122 39316 ft 489 kts 246°
2026-04-29 06:51 26.21525 48.41661 39561 ft 489 kts 245°
2026-04-29 06:51 26.20092 48.38222 39795 ft 489 kts 245°
2026-04-29 06:51 26.18637 48.34794 39976 ft 491 kts 244°
2026-04-29 06:52 26.15719 48.27925 40001 ft 491 kts 244°
2026-04-29 06:52 26.12810 48.21056 40001 ft 491 kts 243°
2026-04-29 06:53 26.09750 48.15766 39999 ft 490 kts 229°
2026-04-29 06:53 26.05186 48.10120 40001 ft 491 kts 226°
2026-04-29 06:54 25.99665 48.03719 39999 ft 491 kts 226°
2026-04-29 06:54 25.95729 47.99176 39999 ft 491 kts 226°
2026-04-29 06:55 25.91008 47.93697 40000 ft 491 kts 226°
2026-04-29 06:55 25.86296 47.88213 39999 ft 491 kts 226°
2026-04-29 06:56 25.81584 47.82731 39999 ft 491 kts 226°
2026-04-29 06:56 25.76869 47.77252 40000 ft 491 kts 226°
2026-04-29 06:57 25.72153 47.71777 40002 ft 491 kts 226°
2026-04-29 06:57 25.67434 47.66307 40000 ft 491 kts 226°
2026-04-29 06:58 25.62709 47.60848 40000 ft 491 kts 226°
2026-04-29 06:58 25.57980 47.55391 39999 ft 491 kts 226°
2026-04-29 06:59 25.53251 47.49939 39999 ft 491 kts 226°
2026-04-29 06:59 25.48527 47.44487 39999 ft 491 kts 226°
2026-04-29 07:00 25.43798 47.39036 39999 ft 491 kts 226°
2026-04-29 07:00 25.39066 47.33591 40000 ft 491 kts 226°
2026-04-29 07:01 25.34333 47.28153 39999 ft 491 kts 226°
2026-04-29 07:01 25.29598 47.22719 40000 ft 491 kts 226°
2026-04-29 07:02 25.24860 47.17289 40000 ft 491 kts 226°
2026-04-29 07:02 25.20120 47.11863 40000 ft 491 kts 226°
2026-04-29 07:03 25.15379 47.06441 40000 ft 491 kts 226°
2026-04-29 07:03 25.10635 47.01023 40001 ft 491 kts 226°
2026-04-29 07:04 25.05889 46.95609 39999 ft 491 kts 226°
2026-04-29 07:04 25.01174 46.90237 40000 ft 491 kts 226°
2026-04-29 07:05 24.96424 46.84831 40001 ft 491 kts 226°
2026-04-29 07:05 24.91673 46.79429 39999 ft 491 kts 225°
2026-04-29 07:06 24.87607 46.73422 40003 ft 490 kts 242°
2026-04-29 07:06 24.84522 46.66726 39999 ft 491 kts 244°
2026-04-29 07:07 24.81603 46.59928 40002 ft 491 kts 245°
2026-04-29 07:07 24.78692 46.53133 39999 ft 491 kts 244°
2026-04-29 07:08 24.75756 46.46355 39999 ft 491 kts 244°
2026-04-29 07:08 24.72803 46.39583 39999 ft 491 kts 244°
2026-04-29 07:09 24.69844 46.32812 40000 ft 491 kts 244°
2026-04-29 07:09 24.66885 46.26050 40002 ft 491 kts 244°
2026-04-29 07:10 24.63923 46.19287 39999 ft 491 kts 244°
2026-04-29 07:10 24.60959 46.12529 40001 ft 491 kts 244°
2026-04-29 07:11 24.57990 46.05773 40000 ft 491 kts 244°
2026-04-29 07:11 24.55019 45.99020 39999 ft 491 kts 244°
2026-04-29 07:12 24.52045 45.92272 40000 ft 491 kts 244°
2026-04-29 07:12 24.49068 45.85527 40001 ft 491 kts 244°
2026-04-29 07:13 24.46088 45.78783 40000 ft 491 kts 244°
2026-04-29 07:13 24.43127 45.72089 39999 ft 491 kts 244°
2026-04-29 07:14 24.40134 45.65355 40000 ft 491 kts 244°
2026-04-29 07:14 24.37137 45.58625 39999 ft 491 kts 244°
2026-04-29 07:15 24.34139 45.51898 40001 ft 491 kts 244°
2026-04-29 07:15 24.31139 45.45175 40003 ft 491 kts 244°
2026-04-29 07:16 24.28137 45.38453 40001 ft 491 kts 244°
2026-04-29 07:16 24.25131 45.31734 39999 ft 491 kts 244°
2026-04-29 07:17 24.22123 45.25022 39999 ft 491 kts 244°
2026-04-29 07:17 24.19110 45.18308 39999 ft 491 kts 244°
2026-04-29 07:18 24.16096 45.11600 40000 ft 491 kts 244°
2026-04-29 07:18 24.13080 45.04893 39999 ft 491 kts 244°
2026-04-29 07:19 24.10077 44.98240 40002 ft 491 kts 243°
2026-04-29 07:19 24.07050 44.91544 39999 ft 491 kts 243°
2026-04-29 07:20 24.04022 44.84849 39999 ft 491 kts 243°
2026-04-29 07:20 24.00991 44.78159 40000 ft 491 kts 243°
2026-04-29 07:21 23.97957 44.71470 40002 ft 491 kts 243°
2026-04-29 07:21 23.94919 44.64782 39999 ft 491 kts 243°
2026-04-29 07:22 23.92307 44.57903 40002 ft 491 kts 255°
2026-04-29 07:22 23.90618 44.50677 40002 ft 491 kts 256°
2026-04-29 07:23 23.89087 44.43405 40000 ft 491 kts 257°
2026-04-29 07:23 23.87565 44.36132 40001 ft 491 kts 257°
2026-04-29 07:24 23.86021 44.28860 40000 ft 491 kts 257°
2026-04-29 07:24 23.84463 44.21597 39999 ft 491 kts 256°
2026-04-29 07:25 23.82899 44.14335 40001 ft 491 kts 256°
2026-04-29 07:25 23.81343 44.07125 40001 ft 491 kts 256°
2026-04-29 07:26 23.79774 43.99864 39999 ft 491 kts 256°
2026-04-29 07:26 23.78191 43.92559 39999 ft 491 kts 256°
2026-04-29 07:27 23.76625 43.85353 40003 ft 491 kts 256°
2026-04-29 07:27 23.75035 43.78102 39999 ft 491 kts 256°
2026-04-29 07:28 23.73440 43.70854 39999 ft 491 kts 256°
2026-04-29 07:28 23.71842 43.63607 40000 ft 491 kts 256°
2026-04-29 07:29 23.70243 43.56362 40000 ft 491 kts 256°
2026-04-29 07:29 23.68640 43.49118 40000 ft 491 kts 256°
2026-04-29 07:30 23.67033 43.41874 39999 ft 491 kts 256°
2026-04-29 07:30 23.65424 43.34636 40001 ft 491 kts 256°
2026-04-29 07:31 23.63003 43.23781 40001 ft 491 kts 256°
2026-04-29 07:31 23.61385 43.16544 39999 ft 491 kts 256°
2026-04-29 07:32 23.59775 43.09360 39999 ft 491 kts 256°
2026-04-29 07:32 23.58150 43.02127 39999 ft 491 kts 256°
2026-04-29 07:33 23.56521 42.94894 39999 ft 491 kts 256°
2026-04-29 07:33 23.54891 42.87670 39999 ft 491 kts 256°
2026-04-29 07:34 23.53256 42.80444 40000 ft 491 kts 256°
2026-04-29 07:34 23.51618 42.73217 40002 ft 491 kts 256°
2026-04-29 07:35 23.49977 42.65994 40001 ft 491 kts 256°
2026-04-29 07:35 23.48333 42.58771 40000 ft 491 kts 256°
2026-04-29 07:36 23.46687 42.51555 39999 ft 491 kts 256°
2026-04-29 07:36 23.45036 42.44336 40002 ft 491 kts 256°
2026-04-29 07:37 23.43382 42.37118 40002 ft 491 kts 256°
2026-04-29 07:37 23.41725 42.29905 40000 ft 491 kts 256°
2026-04-29 07:38 23.40065 42.22693 39999 ft 491 kts 256°
2026-04-29 07:38 23.38401 42.15483 40002 ft 491 kts 256°
2026-04-29 07:39 23.36734 42.08273 39999 ft 491 kts 256°
2026-04-29 07:39 23.35064 42.01065 39999 ft 491 kts 256°
2026-04-29 07:40 23.33391 41.93863 40001 ft 491 kts 256°
2026-04-29 07:40 23.31714 41.86659 39999 ft 491 kts 256°
2026-04-29 07:41 23.30034 41.79458 40002 ft 491 kts 256°
2026-04-29 07:41 23.28490 41.73520 40001 ft 491 kts 249°
2026-04-29 07:42 23.25358 41.66943 39999 ft 490 kts 238°
2026-04-29 07:42 23.21711 41.60677 40000 ft 491 kts 237°
2026-04-29 07:43 23.17984 41.54461 40000 ft 491 kts 237°
2026-04-29 07:43 23.14269 41.48239 40000 ft 491 kts 237°
2026-04-29 07:44 23.10568 41.42005 40000 ft 491 kts 237°
2026-04-29 07:44 23.06872 41.35774 40000 ft 491 kts 237°
2026-04-29 07:45 23.03172 41.29543 40000 ft 491 kts 237°
2026-04-29 07:45 22.99469 41.23317 39999 ft 491 kts 237°
2026-04-29 07:46 22.95764 41.17094 39999 ft 491 kts 237°
2026-04-29 07:46 22.92057 41.10877 40000 ft 491 kts 237°
2026-04-29 07:47 22.88348 41.04662 39999 ft 491 kts 237°
2026-04-29 07:47 22.84637 40.98450 40000 ft 491 kts 237°
2026-04-29 07:48 22.80919 40.92244 40000 ft 491 kts 237°
2026-04-29 07:48 22.77197 40.86040 40003 ft 491 kts 237°
2026-04-29 07:49 22.73477 40.79844 40000 ft 491 kts 237°
2026-04-29 07:49 22.69753 40.73647 39731 ft 490 kts 237°
2026-04-29 07:50 22.67892 40.70553 39485 ft 490 kts 237°
2026-04-29 07:50 22.66029 40.67459 39239 ft 490 kts 237°
2026-04-29 07:50 22.64167 40.64367 38982 ft 490 kts 237°
2026-04-29 07:50 22.62304 40.61275 38739 ft 490 kts 237°
2026-04-29 07:51 22.60440 40.58183 38484 ft 490 kts 237°
2026-04-29 07:51 22.58575 40.55093 38245 ft 490 kts 237°
2026-04-29 07:51 22.56736 40.52046 37998 ft 490 kts 237°
2026-04-29 07:51 22.54871 40.48958 37753 ft 490 kts 237°
2026-04-29 07:52 22.53008 40.45875 37387 ft 488 kts 237°
2026-04-29 07:52 22.51151 40.42804 36726 ft 487 kts 237°
2026-04-29 07:52 22.49296 40.39739 36014 ft 487 kts 237°
2026-04-29 07:52 22.47439 40.36671 35283 ft 488 kts 237°
2026-04-29 07:53 22.45575 40.33595 34436 ft 490 kts 237°
2026-04-29 07:53 22.43703 40.30506 33573 ft 492 kts 237°
2026-04-29 07:53 22.41823 40.27407 32686 ft 494 kts 237°
2026-04-29 07:53 22.39936 40.24297 31871 ft 494 kts 237°
2026-04-29 07:54 22.38060 40.21207 31213 ft 490 kts 237°
2026-04-29 07:54 22.36194 40.18136 30567 ft 486 kts 237°
2026-04-29 07:54 22.34346 40.15097 29922 ft 482 kts 237°
2026-04-29 07:54 22.32510 40.12079 29270 ft 479 kts 237°
2026-04-29 07:55 22.30687 40.09083 28622 ft 476 kts 237°
2026-04-29 07:55 22.28878 40.06111 28043 ft 471 kts 237°
2026-04-29 07:55 22.27104 40.03200 27891 ft 457 kts 237°
2026-04-29 07:55 22.25386 40.00380 27760 ft 443 kts 237°
2026-04-29 07:56 22.23718 39.97646 27609 ft 430 kts 236°
2026-04-29 07:56 22.22094 39.94986 27419 ft 419 kts 236°
2026-04-29 07:56 22.20509 39.92397 27244 ft 408 kts 236°
2026-04-29 07:56 22.18697 39.90099 27056 ft 398 kts 220°
2026-04-29 07:57 22.16360 39.88599 26843 ft 389 kts 200°
2026-04-29 07:57 22.13733 39.88077 26494 ft 384 kts 179°
2026-04-29 07:57 22.11131 39.88596 26080 ft 381 kts 158°
2026-04-29 07:57 22.08894 39.90090 25657 ft 380 kts 136°
2026-04-29 07:58 22.07251 39.92279 25393 ft 372 kts 126°
2026-04-29 07:58 22.05423 39.94130 25111 ft 364 kts 149°
2026-04-29 07:58 22.03082 39.95092 24714 ft 361 kts 172°
2026-04-29 07:58 22.00598 39.95009 24316 ft 358 kts 192°
2026-04-29 07:59 21.98159 39.94516 23912 ft 356 kts 187°
2026-04-29 07:59 21.95693 39.94298 23510 ft 355 kts 183°
2026-04-29 07:59 21.93235 39.94150 23112 ft 353 kts 186°
2026-04-29 07:59 21.90866 39.93524 22713 ft 351 kts 204°
2026-04-29 08:00 21.88833 39.92111 22311 ft 348 kts 223°
2026-04-29 08:00 21.87376 39.90055 21919 ft 346 kts 243°
2026-04-29 08:00 21.86647 39.87604 21518 ft 344 kts 262°
2026-04-29 08:00 21.86713 39.85049 21124 ft 343 kts 281°
2026-04-29 08:01 21.87553 39.82667 20738 ft 341 kts 300°
2026-04-29 08:01 21.88916 39.80582 20343 ft 340 kts 307°
2026-04-29 08:01 21.90156 39.78432 19955 ft 337 kts 293°
2026-04-29 08:01 21.90806 39.76026 19569 ft 334 kts 279°
2026-04-29 08:02 21.91165 39.73558 19178 ft 333 kts 277°
2026-04-29 08:02 21.91484 39.71099 18796 ft 331 kts 277°
2026-04-29 08:02 21.91802 39.68653 18413 ft 329 kts 277°
2026-04-29 08:02 21.92120 39.66227 18034 ft 326 kts 277°
2026-04-29 08:03 21.92438 39.63814 17660 ft 324 kts 277°
2026-04-29 08:03 21.92755 39.61414 17278 ft 323 kts 277°
2026-04-29 08:03 21.93071 39.59032 16910 ft 321 kts 277°
2026-04-29 08:03 21.93385 39.56659 16540 ft 319 kts 277°
2026-04-29 08:04 21.93697 39.54304 16165 ft 317 kts 277°
2026-04-29 08:04 21.94002 39.51958 15807 ft 315 kts 277°
2026-04-29 08:04 21.94018 39.49619 15445 ft 312 kts 261°
2026-04-29 08:04 21.93358 39.47409 15111 ft 310 kts 245°
2026-04-29 08:05 21.92439 39.45338 14537 ft 301 kts 243°
2026-04-29 08:05 21.91537 39.43361 14381 ft 289 kts 244°
2026-04-29 08:05 21.90663 39.41428 14033 ft 286 kts 244°
2026-04-29 08:05 21.89795 39.39499 13601 ft 286 kts 244°
2026-04-29 08:06 21.88931 39.37574 13126 ft 286 kts 244°
2026-04-29 08:06 21.88067 39.35645 12625 ft 286 kts 244°
2026-04-29 08:06 21.87203 39.33713 12173 ft 286 kts 244°
2026-04-29 08:06 21.86354 39.31817 11774 ft 284 kts 244°
2026-04-29 08:07 21.85501 39.29908 11359 ft 282 kts 244°
2026-04-29 08:07 21.84652 39.28009 10952 ft 281 kts 245°
2026-04-29 08:07 21.83805 39.26120 10562 ft 280 kts 245°
2026-04-29 08:07 21.82774 39.24387 10352 ft 273 kts 229°
2026-04-29 08:08 21.81251 39.23226 10173 ft 269 kts 205°
2026-04-29 08:08 21.79429 39.22889 9999 ft 267 kts 180°
2026-04-29 08:08 21.77636 39.23325 9856 ft 263 kts 164°
2026-04-29 08:08 21.75933 39.24001 9615 ft 259 kts 162°
2026-04-29 08:09 21.74257 39.24689 9318 ft 256 kts 162°
2026-04-29 08:09 21.72595 39.25361 9048 ft 254 kts 163°
2026-04-29 08:09 21.70945 39.26019 8772 ft 252 kts 163°
2026-04-29 08:09 21.69308 39.26672 8477 ft 250 kts 163°
2026-04-29 08:10 21.67682 39.27320 8151 ft 248 kts 163°
2026-04-29 08:10 21.66068 39.27960 7863 ft 246 kts 163°
2026-04-29 08:10 21.64469 39.28594 7586 ft 244 kts 163°
2026-04-29 08:10 21.62882 39.29219 7329 ft 241 kts 163°
2026-04-29 08:11 21.61312 39.29841 7062 ft 239 kts 163°
2026-04-29 08:11 21.59758 39.30453 6809 ft 237 kts 163°
2026-04-29 08:11 21.58216 39.31054 6567 ft 235 kts 163°
2026-04-29 08:11 21.56685 39.31649 6312 ft 234 kts 163°
2026-04-29 08:12 21.55160 39.32244 6015 ft 234 kts 162°
2026-04-29 08:12 21.53623 39.32845 5708 ft 236 kts 162°
2026-04-29 08:12 21.52081 39.33450 5390 ft 236 kts 162°
2026-04-29 08:12 21.50524 39.34058 5040 ft 239 kts 162°
2026-04-29 08:13 21.48958 39.34670 4707 ft 240 kts 162°
2026-04-29 08:13 21.47392 39.35282 4388 ft 240 kts 161°
2026-04-29 08:13 21.45814 39.35901 4062 ft 241 kts 161°
2026-04-29 08:13 21.44242 39.36521 3986 ft 241 kts 161°
2026-04-29 08:14 21.42666 39.37137 3977 ft 241 kts 161°
2026-04-29 08:14 21.41095 39.37760 3971 ft 240 kts 160°
2026-04-29 08:14 21.39524 39.38377 3972 ft 241 kts 160°
2026-04-29 08:14 21.37947 39.38995 3971 ft 240 kts 160°
2026-04-29 08:15 21.36326 39.39409 3966 ft 240 kts 179°
2026-04-29 08:15 21.34760 39.38933 3975 ft 234 kts 218°
2026-04-29 08:15 21.33780 39.37609 3977 ft 227 kts 248°
2026-04-29 08:15 21.33211 39.36059 3973 ft 226 kts 253°
2026-04-29 08:16 21.32709 39.34462 3971 ft 226 kts 257°
2026-04-29 08:16 21.32628 39.32808 3980 ft 222 kts 284°
2026-04-29 08:16 21.33391 39.31441 3971 ft 215 kts 323°
2026-04-29 08:16 21.34700 39.30671 4010 ft 216 kts 336°
2026-04-29 08:17 21.36093 39.30079 3985 ft 215 kts 339°
2026-04-29 08:17 21.37500 39.29522 3984 ft 216 kts 340°
2026-04-29 08:17 21.38913 39.28973 3984 ft 217 kts 340°
2026-04-29 08:17 21.40331 39.28423 3991 ft 217 kts 340°
2026-04-29 08:18 21.41741 39.27877 3982 ft 215 kts 339°
2026-04-29 08:18 21.43146 39.27331 3989 ft 216 kts 339°
2026-04-29 08:18 21.44559 39.26780 3986 ft 216 kts 339°
2026-04-29 08:18 21.45970 39.26221 3995 ft 217 kts 339°
2026-04-29 08:19 21.47381 39.25660 3946 ft 216 kts 339°
2026-04-29 08:19 21.48783 39.25110 3738 ft 214 kts 340°
2026-04-29 08:19 21.50187 39.24558 3441 ft 216 kts 340°
2026-04-29 08:19 21.51600 39.23998 3112 ft 217 kts 340°
2026-04-29 08:20 21.53013 39.23442 2833 ft 216 kts 340°
2026-04-29 08:20 21.54410 39.22886 2535 ft 210 kts 341°
2026-04-29 08:20 21.55733 39.22364 2287 ft 195 kts 341°
2026-04-29 08:20 21.56957 39.21881 2061 ft 180 kts 341°
2026-04-29 08:21 21.58093 39.21434 1815 ft 167 kts 340°
2026-04-29 08:21 21.59139 39.21020 1605 ft 154 kts 340°
2026-04-29 08:21 21.60117 39.20632 1407 ft 148 kts 341°
2026-04-29 08:21 21.61078 39.20253 1230 ft 147 kts 340°
2026-04-29 08:22 21.62012 39.19885 1032 ft 138 kts 340°
2026-04-29 08:22 21.62885 39.19543 809 ft 130 kts 340°
2026-04-29 08:22 21.63702 39.19214 633 ft 122 kts 341°
2026-04-29 08:22 21.64478 39.18870 528 ft 120 kts 344°
2026-04-29 08:23 21.65251 39.18562 375 ft 116 kts 346°
2026-04-29 08:23 21.66013 39.18283 216 ft 116 kts 344°
2026-04-29 08:23 21.66796 39.18004 100 ft 122 kts 341°
2026-04-29 08:23 21.67541 39.17710 56 ft 96 kts 340°
2026-04-29 08:24 21.68030 39.17510 50 ft 58 kts 338°
2026-04-29 08:24 21.68341 39.17302 52 ft 46 kts 311°
2026-04-29 08:24 21.68410 39.17119 49 ft 4 kts 221°
2026-04-29 08:24 21.68400 39.17123 52 ft 5 kts 164°
2026-04-29 08:25 21.68297 39.17162 50 ft 19 kts 159°
2026-04-29 08:25 21.68181 39.17212 49 ft 18 kts 159°
2026-04-29 08:25 21.68054 39.17262 51 ft 21 kts 160°
2026-04-29 08:25 21.67913 39.17318 51 ft 20 kts 160°
2026-04-29 08:26 21.67802 39.17361 51 ft 12 kts 160°
2026-04-29 08:26 21.67774 39.17373 51 ft 0 kts 160°